Terminal Aerodrome Forecast
Issued by NWS Flagstaff, AZ

Home | Current Version | Previous Version | Text Only | Print | Product List | Glossary On
Versions: 1 2 3 4 5 6 7 8 9 10 11 12 13 14 15 16 17 18 19
000
FTUS45 KFGZ 021124
TAFFLG
TAF
KFLG 021124Z 0212/0312 VRB06KT P6SM SCT080 BKN120
     FM021800 24008KT P6SM SCT080 BKN120
      TEMPO 0221/0301 5SM TSRA BKN060CB=

USA.gov is the U.S. government's official web portal to all federal, state and local government web resources and services.